timestamp,wind_dir_avg,wind_spd_avg,wind_spd_max_dir,wind_spd_gust,battery_voltage,lat,long
2023-09-26 00:04:00+00:00,13.0,6.32,18.0,8.73,12.41,47.59359,-54.27349
2023-09-26 00:14:01+00:00,25.0,6.55,28.0,8.62,12.41,47.59359,-54.27349
2023-09-26 00:24:01+00:00,18.0,5.5,29.0,6.46,12.41,47.59359,-54.27349
2023-09-26 00:34:01+00:00,21.0,5.19,29.0,5.87,12.41,47.59359,-54.27349
2023-09-26 00:44:01+00:00,19.0,4.16,19.0,4.73,12.41,47.59359,-54.27349
2023-09-26 00:54:01+00:00,14.0,3.56,10.0,4.48,12.41,47.59359,-54.27349
2023-09-26 01:04:01+00:00,25.0,3.57,35.0,4.28,12.41,47.59359,-54.27349
2023-09-26 01:14:00+00:00,5.0,3.27,13.0,4.16,12.33,47.59359,-54.27349
2023-09-26 01:24:00+00:00,5.0,4.2,3.0,4.85,12.33,47.59359,-54.27349
2023-09-26 01:34:00+00:00,23.0,4.3,28.0,5.23,12.33,47.59359,-54.27349
2023-09-26 01:44:00+00:00,14.0,3.86,16.0,4.71,12.33,47.59359,-54.27349
2023-09-26 01:54:00+00:00,16.0,4.03,17.0,5.11,12.33,47.59359,-54.27349
2023-09-26 02:04:00+00:00,0.0,4.48,340.0,5.38,12.33,47.59359,-54.27349
2023-09-26 02:14:00+00:00,347.0,4.9,359.0,5.73,12.41,47.59359,-54.27349
2023-09-26 02:24:00+00:00,2.0,4.82,353.0,5.59,12.41,47.59359,-54.27349
2023-09-26 02:34:00+00:00,357.0,4.68,350.0,5.49,12.41,47.59359,-54.27349
2023-09-26 02:44:00+00:00,1.0,4.54,354.0,4.99,12.41,47.59359,-54.27349
2023-09-26 02:54:00+00:00,356.0,3.53,354.0,4.2,12.41,47.59359,-54.27349
2023-09-26 03:04:00+00:00,1.0,3.94,1.0,4.67,12.41,47.59359,-54.27349
2023-09-26 03:14:00+00:00,358.0,4.56,4.0,4.94,12.33,47.59359,-54.27349
2023-09-26 03:24:00+00:00,349.0,4.43,9.0,5.0,12.33,47.59359,-54.27349
2023-09-26 03:34:00+00:00,344.0,2.92,354.0,3.23,12.33,47.59359,-54.27349
2023-09-26 03:44:00+00:00,354.0,4.26,354.0,4.27,12.33,47.59359,-54.27349
2023-09-26 03:54:00+00:00,315.0,0.01,341.0,0.0,12.33,47.59359,-54.27349
2023-09-26 04:04:00+00:00,315.0,0.01,332.0,0.0,12.33,47.59359,-54.27349
2023-09-26 04:14:01+00:00,315.0,0.01,345.0,0.0,12.33,47.59359,-54.27349
2023-09-26 04:24:01+00:00,329.0,3.08,329.0,3.37,12.33,47.59359,-54.27349
2023-09-26 04:34:01+00:00,315.0,0.01,340.0,0.0,12.33,47.59359,-54.27349
2023-09-26 04:44:01+00:00,334.0,3.63,334.0,3.65,12.33,47.59359,-54.27349
2023-09-26 04:54:01+00:00,315.0,0.01,331.0,0.0,12.33,47.59359,-54.27349
2023-09-26 05:04:01+00:00,315.0,0.01,332.0,0.0,12.33,47.59359,-54.27349
2023-09-26 05:14:00+00:00,325.0,2.97,332.0,3.32,12.25,47.59359,-54.27349
2023-09-26 05:24:00+00:00,332.0,2.77,332.0,2.79,12.25,47.59359,-54.27349
2023-09-26 05:34:00+00:00,334.0,3.35,329.0,3.44,12.25,47.59359,-54.27349
2023-09-26 05:44:00+00:00,333.0,3.54,333.0,3.56,12.25,47.59359,-54.27349
2023-09-26 05:54:00+00:00,333.0,4.51,338.0,5.29,12.25,47.59359,-54.27349
2023-09-26 06:04:00+00:00,332.0,4.78,343.0,5.43,12.25,47.59359,-54.27349
2023-09-26 06:14:01+00:00,315.0,0.01,341.0,0.0,12.33,47.59359,-54.27349
2023-09-26 06:24:01+00:00,338.0,5.12,338.0,5.41,12.33,47.59359,-54.27349
2023-09-26 06:34:01+00:00,331.0,4.5,333.0,5.2,12.33,47.59359,-54.27349
2023-09-26 06:44:01+00:00,323.0,2.68,332.0,3.09,12.33,47.59359,-54.27349
2023-09-26 06:54:01+00:00,315.0,0.01,339.0,0.0,12.33,47.59359,-54.27349
2023-09-26 07:04:01+00:00,315.0,0.01,331.0,0.0,12.33,47.59359,-54.27349
2023-09-26 07:14:00+00:00,339.0,3.79,343.0,4.68,12.25,47.59359,-54.27349
2023-09-26 07:24:00+00:00,315.0,0.01,353.0,0.0,12.25,47.59359,-54.27349
2023-09-26 07:34:00+00:00,315.0,0.01,346.0,0.0,12.25,47.59359,-54.27349
2023-09-26 07:44:00+00:00,345.0,5.21,344.0,6.13,12.25,47.59359,-54.27349
2023-09-26 07:54:00+00:00,325.0,4.91,327.0,6.28,12.25,47.59359,-54.27349
2023-09-26 08:04:00+00:00,334.0,4.74,328.0,5.74,12.25,47.59359,-54.27349
2023-09-26 08:14:00+00:00,341.0,5.87,335.0,6.82,12.33,47.59359,-54.27349
2023-09-26 08:24:00+00:00,339.0,5.89,341.0,6.94,12.33,47.59359,-54.27349
2023-09-26 08:34:00+00:00,336.0,5.58,341.0,6.36,12.33,47.59359,-54.27349
2023-09-26 08:44:00+00:00,339.0,4.54,333.0,5.3,12.33,47.59359,-54.27349
2023-09-26 08:54:00+00:00,336.0,4.39,341.0,5.16,12.33,47.59359,-54.27349
2023-09-26 09:04:00+00:00,338.0,4.02,339.0,4.41,12.33,47.59359,-54.27349
2023-09-26 09:14:00+00:00,342.0,3.83,341.0,4.33,12.17,47.59359,-54.27349
2023-09-26 09:24:00+00:00,341.0,4.16,343.0,5.13,12.17,47.59359,-54.27349
2023-09-26 09:34:00+00:00,351.0,4.64,353.0,5.3,12.17,47.59359,-54.27349
2023-09-26 09:44:00+00:00,349.0,4.72,346.0,5.98,12.17,47.59359,-54.27349
2023-09-26 09:54:00+00:00,355.0,4.59,349.0,5.32,12.17,47.59359,-54.27349
2023-09-26 10:04:00+00:00,353.0,4.78,358.0,5.76,12.17,47.59359,-54.27349
2023-09-26 10:14:00+00:00,337.0,4.35,345.0,5.17,12.17,47.59359,-54.27349
2023-09-26 10:24:00+00:00,5.0,2.19,18.0,2.71,12.17,47.59359,-54.27349
2023-09-26 10:34:00+00:00,314.0,5.09,309.0,5.73,12.17,47.59359,-54.27349
2023-09-26 10:44:00+00:00,308.0,5.64,309.0,6.66,12.17,47.59359,-54.27349
2023-09-26 10:54:00+00:00,315.0,4.86,310.0,5.71,12.17,47.59359,-54.27349
2023-09-26 11:04:00+00:00,323.0,5.27,323.0,6.05,12.17,47.59359,-54.27349
2023-09-26 11:14:00+00:00,329.0,3.92,327.0,4.42,13.76,47.59359,-54.27349
2023-09-26 11:24:00+00:00,328.0,3.18,325.0,3.82,13.76,47.59359,-54.27349
2023-09-26 11:34:00+00:00,329.0,2.69,336.0,3.5,13.76,47.59359,-54.27349
2023-09-26 11:44:00+00:00,289.0,1.66,301.0,2.31,13.76,47.59359,-54.27349
2023-09-26 11:54:00+00:00,326.0,2.26,338.0,3.35,13.76,47.59359,-54.27349
2023-09-26 12:04:00+00:00,292.0,2.62,289.0,3.62,13.76,47.59359,-54.27349
2023-09-26 12:14:00+00:00,341.0,2.35,346.0,3.27,14.32,47.59359,-54.27349
2023-09-26 12:24:00+00:00,270.0,0.77,264.0,1.25,14.32,47.59359,-54.27349
2023-09-26 12:34:00+00:00,243.0,1.86,253.0,2.48,14.32,47.59359,-54.27349
2023-09-26 12:44:00+00:00,256.0,1.74,251.0,2.35,14.32,47.59359,-54.27349
2023-09-26 12:54:00+00:00,338.0,2.69,325.0,3.84,14.32,47.59359,-54.27349
2023-09-26 13:04:00+00:00,326.0,3.58,322.0,4.04,14.32,47.59359,-54.27349
2023-09-26 13:14:01+00:00,328.0,3.53,325.0,4.01,13.6,47.59359,-54.27349
2023-09-26 13:24:01+00:00,315.0,2.84,315.0,3.29,13.6,47.59359,-54.27349
2023-09-26 13:34:01+00:00,313.0,4.6,319.0,5.5,13.6,47.59359,-54.27349
2023-09-26 13:44:01+00:00,307.0,4.29,309.0,4.95,13.6,47.59359,-54.27349
2023-09-26 13:54:01+00:00,321.0,5.55,324.0,6.26,13.6,47.59359,-54.27349
2023-09-26 14:04:01+00:00,319.0,4.4,323.0,5.02,13.6,47.59359,-54.27349
2023-09-26 14:14:01+00:00,321.0,5.04,321.0,5.7,13.76,47.59359,-54.27349
2023-09-26 14:24:01+00:00,318.0,4.35,317.0,4.93,13.76,47.59359,-54.27349
2023-09-26 14:34:01+00:00,314.0,4.69,314.0,5.35,13.76,47.59359,-54.27349
2023-09-26 14:44:01+00:00,310.0,3.95,309.0,4.5,13.76,47.59359,-54.27349
2023-09-26 14:54:01+00:00,326.0,4.04,331.0,4.64,13.76,47.59359,-54.27349
2023-09-26 15:04:01+00:00,328.0,3.72,325.0,4.58,13.76,47.59359,-54.27349
2023-09-26 15:14:00+00:00,342.0,3.02,342.0,3.51,14.32,47.59359,-54.27349
2023-09-26 15:24:00+00:00,351.0,2.07,351.0,2.44,14.32,47.59359,-54.27349
2023-09-26 15:34:00+00:00,356.0,2.1,0.0,2.49,14.32,47.59359,-54.27349
2023-09-26 15:44:00+00:00,353.0,2.79,352.0,3.36,14.32,47.59359,-54.27349
2023-09-26 15:54:00+00:00,322.0,4.34,323.0,5.13,14.32,47.59359,-54.27349
2023-09-26 16:04:00+00:00,0.0,3.79,5.0,4.65,14.32,47.59359,-54.27349
2023-09-26 16:14:01+00:00,357.0,4.49,351.0,5.47,14.24,47.59359,-54.27349
2023-09-26 16:24:01+00:00,351.0,4.5,348.0,5.08,14.24,47.59359,-54.27349
2023-09-26 16:34:01+00:00,346.0,4.14,345.0,5.06,14.24,47.59359,-54.27349
2023-09-26 16:44:01+00:00,346.0,4.13,349.0,4.53,14.24,47.59359,-54.27349
2023-09-26 16:54:01+00:00,341.0,3.07,340.0,3.35,14.24,47.59359,-54.27349
2023-09-26 17:04:01+00:00,342.0,4.11,343.0,4.7,14.24,47.59359,-54.27349
2023-09-26 17:14:01+00:00,340.0,3.03,333.0,3.91,14.24,47.59359,-54.27349
2023-09-26 17:24:01+00:00,337.0,3.1,343.0,3.43,14.24,47.59359,-54.27349
2023-09-26 17:34:01+00:00,341.0,3.02,340.0,3.45,14.24,47.59359,-54.27349
2023-09-26 17:44:01+00:00,0.0,4.14,359.0,4.53,14.24,47.59359,-54.27349
2023-09-26 17:54:01+00:00,345.0,3.16,343.0,3.66,14.24,47.59359,-54.27349
2023-09-26 18:04:01+00:00,359.0,3.86,2.0,4.41,14.24,47.59359,-54.27349
2023-09-26 18:14:01+00:00,350.0,2.96,351.0,3.25,14.24,47.59359,-54.27349
2023-09-26 18:24:01+00:00,356.0,4.41,358.0,5.1,14.24,47.59359,-54.27349
2023-09-26 18:34:01+00:00,357.0,4.3,358.0,4.81,14.24,47.59359,-54.27349
2023-09-26 18:44:01+00:00,348.0,4.97,348.0,5.45,14.24,47.59359,-54.27349
2023-09-26 18:54:01+00:00,357.0,4.64,358.0,5.04,14.24,47.59359,-54.27349
2023-09-26 19:04:01+00:00,356.0,4.08,357.0,4.27,14.24,47.59359,-54.27349
2023-09-26 19:14:00+00:00,354.0,5.05,353.0,5.71,13.68,47.59359,-54.27349
2023-09-26 19:24:00+00:00,351.0,4.85,1.0,6.14,13.68,47.59359,-54.27349
2023-09-26 19:34:00+00:00,350.0,4.15,354.0,4.55,13.68,47.59359,-54.27349
2023-09-26 19:44:00+00:00,0.0,4.46,359.0,4.99,13.68,47.59359,-54.27349
2023-09-26 19:54:00+00:00,2.0,4.52,0.0,5.12,13.68,47.59359,-54.27349
2023-09-26 20:04:00+00:00,10.0,4.29,13.0,4.74,13.68,47.59359,-54.27349
2023-09-26 20:14:01+00:00,21.0,5.57,19.0,6.05,13.68,47.59359,-54.27349
2023-09-26 20:24:01+00:00,14.0,6.41,13.0,7.68,13.68,47.59359,-54.27349
2023-09-26 20:34:01+00:00,35.0,6.69,41.0,8.04,13.68,47.59359,-54.27349
2023-09-26 20:44:01+00:00,51.0,6.85,54.0,7.91,13.68,47.59359,-54.27349
2023-09-26 20:54:01+00:00,50.0,9.04,50.0,10.14,13.68,47.59359,-54.27349
2023-09-26 21:04:01+00:00,74.0,5.92,78.0,10.86,13.68,47.59359,-54.27349
2023-09-26 21:14:01+00:00,81.0,5.03,90.0,7.65,13.05,47.59359,-54.27349
2023-09-26 21:24:01+00:00,80.0,5.35,101.0,6.97,13.05,47.59359,-54.27349
2023-09-26 21:34:01+00:00,74.0,7.25,68.0,10.69,13.05,47.59359,-54.27349
2023-09-26 21:44:01+00:00,76.0,5.18,62.0,6.99,13.05,47.59359,-54.27349
2023-09-26 21:54:01+00:00,76.0,5.05,62.0,7.45,13.05,47.59359,-54.27349
2023-09-26 22:04:01+00:00,70.0,5.96,69.0,7.61,13.05,47.59359,-54.27349
2023-09-26 22:14:01+00:00,54.0,9.75,56.0,11.15,12.57,47.59359,-54.27349
2023-09-26 22:24:01+00:00,52.0,10.23,50.0,12.02,12.57,47.59359,-54.27349
2023-09-26 22:34:01+00:00,50.0,11.7,52.0,12.82,12.57,47.59359,-54.27349
2023-09-26 22:44:01+00:00,41.0,11.14,45.0,12.8,12.57,47.59359,-54.27349
2023-09-26 22:54:01+00:00,49.0,11.4,49.0,13.16,12.57,47.59359,-54.27349
2023-09-26 23:04:01+00:00,38.0,10.16,43.0,11.63,12.57,47.59359,-54.27349
2023-09-26 23:14:00+00:00,48.0,8.83,48.0,9.65,12.49,47.59359,-54.27349
2023-09-26 23:24:00+00:00,42.0,7.55,43.0,8.37,12.49,47.59359,-54.27349
2023-09-26 23:34:00+00:00,44.0,7.41,50.0,9.15,12.49,47.59359,-54.27349
2023-09-26 23:44:00+00:00,28.0,6.58,35.0,7.43,12.49,47.59359,-54.27349
2023-09-26 23:54:00+00:00,17.0,6.94,12.0,8.33,12.49,47.59359,-54.27349
